weather.gov     
National Weather Service

Regional Weather Roundup
NWS Homepage
This page is being discontinued on March 12, 2014.
The same data is available at this site. Please update your bookmarks.
Thank you, and we apologize for the inconvenience.
Please send an email to SR-SRH.Webmaster@noaa.gov with any concerns.


Current Version
Previous Version:    01  02  03  04  05  06  07  08  09  10  11  12  13  14  15  16  17  18  19  20  21  22  23  24  25  26  27  28  29  30  
   31  32  33  34  35  36  37  38  39  40  41  42  43  44  45  46  47  48  49  50  51  52  53  54  55  56  57  58  59  60  
[Printable]
790
ASUS43 KJKL 021219
RWRJKL

EAST KENTUCKY HOURLY WEATHER ROUNDUP
NATIONAL WEATHER SERVICE JACKSON KY
800 AM EDT TUE SEP 02 2014

NOTE: "FAIR" INDICATES FEW OR NO CLOUDS BELOW 12,000 FEET WITH
NO SIGNIFICANT WEATHER AND/OR OBSTRUCTIONS TO VISIBILITY.

* THESE REPORTS ARE NOT UNDER NWS QUALITY CONTROL AND MAY NOT
  REPORT WEATHER SUCH AS PRECIPITATION AND FOG.

KYZ079-080-083-085-087-088-110-112-115-119-120-021300
...EASTERN KENTUCKY...

CITY           SKY/WX    TMP DP  RH WIND       PRES   REMARKS
JACKSON        PTSUNNY   73  68  84 CALM      30.08S
6HR MIN TEMP:  73; 6HR MAX TEMP:  74;

LONDON         PTCLDY    73  68  84 S3        30.09S
6HR MIN TEMP:  71; 6HR MAX TEMP:  75;

SOMERSET*      CLOUDY    70  70 100 CALM      30.08S
MONTICELLO*    PTCLDY    73  70  91 CALM      30.08F
6HR MIN TEMP:  69; 6HR MAX TEMP:  73;

WILLIAMSBURG*  CLEAR     70  70 100 SE3       30.09S
MIDDLESBORO*   PTCLDY    69  68  98 CALM      30.12R
6HR MIN TEMP:  68; 6HR MAX TEMP:  70;

HARLAN APT*    CLOUDY    68  68 100 MISG      30.13R VSB<1/4
HAZARD APT*    SUNNY     73  70  88 SW7       30.08
BLACK MTN*       N/A     68  64  88 S5          N/A
PIKEVILLE APT* SUNNY     75  68  78 S3        30.09S
BIG SANDY*     PTSUNNY   76  70  83 SW5       30.08S
6HR MIN TEMP:  74; 6HR MAX TEMP:  77;

MOREHEAD APT*  CLOUDY    75  68  78 S8        30.04F
ASHLAND*       MOSUNNY   72  66  83 CALM      29.99S
$$

KYZ035-036-041-042-044-050-067-078-099-021300
...CENTRAL KENTUCKY...

CITY           SKY/WX    TMP DP  RH WIND       PRES   REMARKS
MT STERLING*   MOCLDY    72  68  88 SW8       30.04F
FLEMING/MASON* CLEAR     73  68  83 S9        30.00F
DANVILLE*      MOCLDY    72  68  88 SW7       30.05F
RICHMOND*      MOCLDY    73  66  78 S7        30.04F
LEXINGTON      CLOUDY    75  68  78 S10       30.01S
6HR MIN TEMP:  74; 6HR MAX TEMP:  76;

FRANKFORT      CLOUDY    75  68  78 SW10      29.98S
6HR MIN TEMP:  74; 6HR MAX TEMP:  76;

$$

KYZ091>093-OHZ055-061-077-WVZ005-015-034-035-042-021300
...SOUTHERN OHIO/WEST VIRGINIA...

CITY           SKY/WX    TMP DP  RH WIND       PRES   REMARKS
COVINGTON      LGT RAIN  66  64  94 E7        30.00S
COLUMBUS       LGT RAIN  73  70  88 W9        29.98S FOG
DAYTON         LGT RAIN  68  65  90 CALM      29.97F
WILMINGTON     LGT RAIN  67  64  90 NW3       30.00F FOG
HUNTINGTON     CLOUDY    73  69  87 S9        30.02S
CHARLESTON     PTSUNNY   69  69 100 SE3       30.04S
BECKLEY        MOSUNNY   71  66  84 SW6       30.15R
BLUEFIELD      MOSUNNY   72  65  78 W7        30.19R
$$

VAZ002-007-008-TNZ017-027-036-066-071-021300
...SOUTHWEST VIRGINIA/EAST TENNESSEE...

CITY           SKY/WX    TMP DP  RH WIND       PRES   REMARKS
WISE*          PTSUNNY   72  70  94 SW6       30.19S
JONESVILLE*      N/A     64  64 100 CALM      30.15R FOG
ABINGDON*      SUNNY     70  69  94 CALM      30.17S
BRISTOL        PTSUNNY   70  66  87 CALM      30.14R
KNOXVILLE      MOCLDY    73  70  90 W3        30.11R
OAK RIDGE      CLEAR     74  70  87 CALM      30.12R
CROSSVILLE     PTCLDY    72  67  84 CALM      30.15S
NASHVILLE      MOCLDY    73  70  90 S6        30.06S
$$

...KEY TO REMARKS...
VSB - VISIBILITY IN MILES
WCI - WIND CHILL INDEX
HX  - HEAT INDEX

$$




U.S. Dept. of Commerce
NOAA National Weather Service
1325 East West Highway
Silver Spring, MD 20910
E-mail: w-nws.webmaster@noaa.gov
Page last modified: May 16, 2007
NATIONAL WEATHER SERVICE: for Safety, for Work, for Fun - FOR LIFE